Home   Weather   Witten   Past weeks

Flag for Germany Past Weather in Witten, North Rhine-Westphalia, Germany — Yesterday and Last 2 Weeks

Now
23 °F

Passing clouds.


Feels Like: 17 °F
Forecast: 18 / 30 °F
Wind: 5 mph from Southeast

Location: Dortmund / Wickede

Current Time: Jan 21, 2017 at 9:30:33 am

Latest Report: Jan 21, 2017 at 8:50 am


Visibility: N/A

Pressure: 30.42 "Hg

Humidity: 86%

Dew Point: 19 °F

Location of WittenLocation

Past Weather in Witten — Graph

°F

Witten Temperature Yesterday

Maximum temperature yesterday: 36 °F (at 1:50 pm)
Minimum temperature yesterday: 19 °F (at 5:50 am)
Average temperature yesterday: 30 °F

High & Low Weather Summary for the Past Weeks

 TemperatureHumidityPressure
High43 °F (Jan 11, 2:20 pm)100% (Jan 8, 6:20 am)30.72 "Hg (Jan 8, 6:20 am)
Low16 °F (Jan 6, 8:20 am)41% (Jan 20, 2:20 pm)29.06 "Hg (Jan 13, 5:20 am)
Average31 °F81%30.19 "Hg
* Reported Jan 6 8:20 am — Jan 21 8:20 am, Witten, Weather by CustomWeather, © 2017

Note: Actual official high and low records may vary slightly from our data, if they occured in-between our weather recording intervals... More about our weather records

Advertising

Witten Weather History for the Previous 24 Hours

Scroll right to see more
 ConditionsComfort  
Time TempWeatherWind HumidityBarometerVisibility
8:20 am
Sat, Jan 21
23 °FClear.3 mph86%30.42 "Hg10 mi
7:50 am23 °FClear.3 mph93%30.42 "Hg10 mi
7:20 am23 °FClear.3 mph86%30.42 "Hg10 mi
6:50 am23 °FClear.5 mph86%30.42 "Hg10 mi
6:20 am23 °FClear.5 mph86%30.42 "Hg10 mi
5:50 am23 °FClear.3 mph93%30.42 "Hg10 mi
5:20 am23 °FClear.2 mph86%30.42 "Hg10 mi
9:50 pm
Fri, Jan 20
28 °FClear.2 mph74%30.48 "Hg10 mi
9:20 pm28 °FClear.2 mph69%30.51 "Hg10 mi
8:50 pm30 °FClear.3 mph69%30.51 "Hg10 mi
8:20 pm30 °FClear.3 mph69%30.51 "Hg10 mi
7:50 pm30 °FClear.5 mph69%30.51 "Hg10 mi
7:20 pm32 °FClear.5 mph64%30.51 "Hg10 mi
6:50 pm32 °FClear.5 mph64%30.51 "Hg10 mi
6:20 pm32 °FClear.5 mph60%30.51 "Hg10 mi
5:50 pm32 °FClear.3 mph60%30.51 "Hg10 mi
5:20 pm34 °FClear.5 mph56%30.51 "Hg10 mi
4:50 pm34 °FSunny.7 mph56%30.51 "Hg10 mi
4:20 pm36 °FSunny.6 mph48%30.51 "Hg10 mi
3:50 pm36 °FPassing clouds.6 mph48%30.51 "HgN/A
3:20 pm36 °FSunny.7 mph44%30.51 "Hg10 mi
2:50 pm36 °FPassing clouds.6 mph41%30.51 "HgN/A
2:20 pm36 °FSunny.6 mph41%30.51 "Hg10 mi
1:50 pm36 °FSunny.5 mph52%30.51 "Hg10 mi
1:20 pm34 °FPassing clouds.5 mph56%30.54 "HgN/A
12:50 pm34 °FSunny.2 mph56%30.54 "Hg10 mi
12:20 pm32 °FPassing clouds.5 mph64%30.54 "HgN/A
11:50 am32 °FPassing clouds.2 mph64%30.54 "HgN/A
11:20 am30 °FScattered clouds.3 mph69%30.57 "HgN/A
10:50 am28 °FScattered clouds.2 mph74%30.57 "HgN/A
10:20 am30 °FSunny.No wind64%30.54 "Hg10 mi
9:50 am28 °FPassing clouds.3 mph59%30.54 "HgN/A
9:20 am25 °FPassing clouds.5 mph63%30.57 "HgN/A
Weather by CustomWeather, © 2017

See weather overviewHow to use our weather pages